This is the latest recevied weather packets stored in our database for station/object W1LBM. If no packets are shown the sender has not sent any weather packets the latest 1 day(s).
| Time | Temp. | Humidity | Pressure | Rain* | Wind** | Luminosity | Snow |
|---|---|---|---|---|---|---|---|
| 1778051445 | 16.11° C | 80% | 1014.2 hPa | 0 mm | - | 0 W/m² | - |
| 1778051142 | 15.56° C | 81% | 1014.1 hPa | 0 mm | - | 0 W/m² | - |
| 1778049626 | 16.11° C | 80% | 1014.2 hPa | 0 mm | - | 0 W/m² | - |
| 1778048720 | 16.11° C | 79% | 1014 hPa | 0 mm | - | 0 W/m² | - |
| 1778047810 | 16.11° C | 78% | 1014 hPa | 0 mm | - | 0 W/m² | - |
| 1778046599 | 16.11° C | 77% | 1014.2 hPa | 0 mm | - | 0 W/m² | - |
| 1778046296 | 16.67° C | 76% | 1014.2 hPa | 0 mm | - | 0 W/m² | - |
| 1778045690 | 16.67° C | 76% | 1014.3 hPa | 0 mm | - | 0 W/m² | - |
| 1778045388 | 16.67° C | 75% | 1014.5 hPa | 0 mm | - | 0 W/m² | - |
| 1778045087 | 16.67° C | 74% | 1014.4 hPa | 0 mm | - | 0 W/m² | - |
| 1778044480 | 16.67° C | 74% | 1014.4 hPa | 0 mm | - | 0 W/m² | - |
| 1778044177 | 16.67° C | 74% | 1014.6 hPa | 0 mm | - | 0 W/m² | - |
| 1778043875 | 16.67° C | 73% | 1014.8 hPa | 0 mm | - | 0 W/m² | - |
| 1778042965 | 16.67° C | 72% | 1014.7 hPa | 0 mm | - | 0 W/m² | - |
| 1778042360 | 16.67° C | 72% | 1014.6 hPa | 0 mm | - | 0 W/m² | - |
| 1778042057 | 16.67° C | 72% | 1014.7 hPa | 0 mm | - | 0 W/m² | - |
| 1778041755 | 16.67° C | 72% | 1014.7 hPa | 0 mm | - | 0 W/m² | - |
| 1778041454 | 16.67° C | 71% | 1014.7 hPa | 0 mm | - | 0 W/m² | - |
| 1778041152 | 17.22° C | 71% | 1014.6 hPa | 0 mm | - | 0 W/m² | - |
| 1778040849 | 17.22° C | 70% | 1014.8 hPa | 0 mm | - | 0 W/m² | - |
| 1778040546 | 16.67° C | 70% | 1014.7 hPa | 0 mm | - | 0 W/m² | - |
| 1778040244 | 16.67° C | 70% | 1014.6 hPa | 0 mm | - | 0 W/m² | - |
| 1778039637 | 16.67° C | 69% | 1014.7 hPa | 0 mm | - | 0 W/m² | - |
| 1778039334 | 16.67° C | 69% | 1014.7 hPa | 0 mm | - | 0 W/m² | - |
| 1778039031 | 17.22° C | 69% | 1014.6 hPa | 0 mm | - | 0 W/m² | - |
* Rain latest hour (hover to see other rain measurements)
** Current wind speed in m/s (hover to see current wind gust speed)